Content
SEND FEEDBACK

Daily
Averages
Monthly
Summary
Suriname

ZANDERIJ, SURINAME


Home > South America > Suriname
Elevation: 49 feet     Latitude: 05 27N     Longitude: 055 12W

WEATHER
 
SELECT A DAY
Number of Records: 102,235;   Date Range: 6/30/96 - 7/20/14
 
SHARE

PRINT THIS DATA

[ ← Previous Day ]
WEATHER ALMANAC - JANUARY 31, 2013
[ Next Day → ]
[ °C ]   °F
Weather ElementAverageHighLow
Temperature74.5 °F87.8 °F (12:00 pm) (4:00 am)
Dewpoint72.2 °F77 °F (9:00 am) (7:00 pm)
Humidity93 %100 % (1:00 am)58 % (12:00 pm)
Barometer29.88 in29.95 in (10:00 am)29.83 in (4:00 pm)
Wind Speed5.9 mph15 mph (1:00 pm)
Weather ElementAverage
Visibility6 mi
Wind DirectionESE (96.5 °)

Weather ElementTotal
Precipitation---
Heating Degree Days21.1 (Base 65)
Averaged from 23 records on January 31, 2013
WEATHER CONDITIONS BREAKOUT
WIND DIRECTION BREAKOUT
WEATHER BY HOUR - JANUARY 31, 2013
[ °C ]   °F
Local TimeTemperatureDewpointHumidityBarometerVisibilityWind DirectionWind SpeedGust SpeedPrecipitationEventsConditions
1:00 AM75.2 °F75.2 °F100 %29.89 in6.2 miENE (60°)4.6 mphPartly Cloudy
2:00 AM75.2 °F75.2 °F100 %29.89 in6.2 miEast (80°)3.5 mphPartly Cloudy
3:00 AM75.2 °F75.2 °F100 %29.86 inESE (120°)3.5 mphClear
4:00 AM0.0 °F0.0 °F29.86 inNNW (330°)2.3 mphClear
5:00 AM75.2 °F75.2 °F100 %29.86 in6.2 miNNW (330°)2.3 mphScattered Clouds
6:00 AM75.2 °F75.2 °F100 %29.86 in4.3 miNNE (20°)2.3 mphRainLight Rain Showers
7:00 AM75.2 °F75.2 °F100 %29.89 in6.2 miNE (40°)2.3 mphScattered Clouds
8:00 AM75.2 °F75.2 °F100 %29.89 in6.2 miNNE (30°)4.6 mphPartly Cloudy
9:00 AM77.0 °F77.0 °F100 %29.92 in6.2 miNNE (30°)3.5 mphPartly Cloudy
10:00 AM80.6 °F77.0 °F89 %29.95 in6.2 miENE (60°)8.1 mphScattered Clouds
11:00 AM84.2 °F75.2 °F74 %29.95 in6.2 miENE (60°)10.4 mphScattered Clouds
12:00 PM87.8 °F71.6 °F58 %29.92 in6.2 miENE (70°)10.4 mphMostly Cloudy
1:00 PM80.6 °F73.4 °F79 %29.89 in6.2 miENE (70°)15.0 mphMostly Cloudy
2:00 PM78.8 °F77.0 °F94 %29.89 in5.0 miNorth (10°)4.6 mphRainLight Rain Showers
3:00 PM80.6 °F77.0 °F89 %29.86 in6.2 miNNW (340°)10.4 mphMostly Cloudy
4:00 PM78.8 °F77.0 °F94 %29.83 in6.2 miNorth (10°)10.4 mphMostly Cloudy
5:00 PM78.8 °F77.0 °F94 %29.83 in5.6 miNE (40°)10.4 mphRainLight Rain Showers
6:00 PM78.8 °F77.0 °F94 %29.83 in6.2 miNE (40°)5.8 mphOvercast
7:00 PM77.0 °F77.0 °F100 %29.83 in5.0 miNNE (30°)5.8 mphRainLight Rain Showers
8:00 PM77.0 °F75.2 °F94 %29.86 in6.2 miNorth (360°)4.6 mphScattered Clouds
9:00 PM77.0 °F75.2 °F94 %29.83 in6.2 miNE (40°)5.8 mphScattered Clouds
10:00 PM75.2 °F73.4 °F94 %29.89 in6.2 miCalmScattered Clouds
11:00 PM75.2 °F75.2 °F100 %29.89 in6.2 miNE (50°)4.6 mphScattered Clouds
Hourly data recorded from SMJP, located miles away from Zanderij, Suriname







STORIES FROM OUR PARTNERS